Time,TemperatureF,DewpointF,PressureIn,WindDirection,WindDirectionDegrees,WindSpeedMPH,WindSpeedGustMPH,Humidity,HourlyPrecipIn,Conditions,Clouds,dailyrainin,SoftwareType,DateUTC
2013-01-03 00:24:00,30.1,29.0,30.16,South,191,0.0,-999.0,97,-99.99,,,0.00,weatherlink.com 1.10,2013-01-03 05:24:00,
2013-01-03 00:39:00,30.0,29.0,30.15,South,191,4.0,-999.0,97,-99.99,,,0.00,weatherlink.com 1.10,2013-01-03 05:39:00,
2013-01-03 00:54:00,29.9,29.0,30.17,SSW,192,0.0,-999.0,97,-99.99,,,0.00,weatherlink.com 1.10,2013-01-03 05:54:00,
2013-01-03 01:09:00,29.8,29.0,30.17,SSW,193,1.0,-999.0,97,-99.99,,,0.00,weatherlink.com 1.10,2013-01-03 06:09:00,
2013-01-03 01:24:00,29.8,29.0,30.16,SSW,193,2.0,-999.0,97,-99.99,,,0.00,weatherlink.com 1.10,2013-01-03 06:24:00,
2013-01-03 01:39:00,29.9,29.0,30.17,SSW,193,0.0,-999.0,97,-99.99,,,0.00,weatherlink.com 1.10,2013-01-03 06:39:00,
2013-01-03 01:54:00,29.9,29.0,30.16,SSW,193,1.0,-999.0,97,-99.99,,,0.00,weatherlink.com 1.10,2013-01-03 06:54:00,
2013-01-03 02:09:00,29.9,29.0,30.16,SSW,194,2.0,-999.0,98,-99.99,,,0.00,weatherlink.com 1.10,2013-01-03 07:09:00,
2013-01-03 02:24:00,29.8,29.0,30.16,SSW,194,0.0,-999.0,98,-99.99,,,0.00,weatherlink.com 1.10,2013-01-03 07:24:00,
2013-01-03 02:39:00,29.7,29.0,30.17,SSW,194,0.0,-999.0,98,-99.99,,,0.00,weatherlink.com 1.10,2013-01-03 07:39:00,
2013-01-03 02:54:00,29.7,29.0,30.17,SSW,194,1.0,-999.0,98,-99.99,,,0.00,weatherlink.com 1.10,2013-01-03 07:54:00,
2013-01-03 03:09:00,29.9,29.0,30.17,SSW,194,0.0,-999.0,98,-99.99,,,0.00,weatherlink.com 1.10,2013-01-03 08:09:00,
2013-01-03 03:24:00,29.9,29.0,30.17,SSW,194,0.0,-999.0,98,-99.99,,,0.00,weatherlink.com 1.10,2013-01-03 08:24:00,
2013-01-03 03:39:00,29.9,29.0,30.16,SSW,194,1.0,-999.0,98,-99.99,,,0.00,weatherlink.com 1.10,2013-01-03 08:39:00,
2013-01-03 03:54:00,30.1,30.0,30.16,SSW,194,1.0,-999.0,98,-99.99,,,0.00,weatherlink.com 1.10,2013-01-03 08:54:00,
2013-01-03 04:09:00,29.6,29.0,30.17,SSW,194,2.0,-999.0,98,-99.99,,,0.00,weatherlink.com 1.10,2013-01-03 09:09:00,
2013-01-03 04:24:00,29.6,29.0,30.16,SSW,194,3.0,-999.0,98,-99.99,,,0.00,weatherlink.com 1.10,2013-01-03 09:24:00,
2013-01-03 04:39:00,29.5,29.0,30.16,SSW,194,2.0,-999.0,98,-99.99,,,0.00,weatherlink.com 1.10,2013-01-03 09:39:00,
2013-01-03 04:54:00,29.4,29.0,30.16,SSW,194,1.0,-999.0,98,-99.99,,,0.00,weatherlink.com 1.10,2013-01-03 09:54:00,
2013-01-03 05:09:00,29.5,29.0,30.16,SSW,194,2.0,-999.0,98,-99.99,,,0.00,weatherlink.com 1.10,2013-01-03 10:09:00,
2013-01-03 05:24:00,29.6,29.0,30.17,SSW,194,4.0,-999.0,98,-99.99,,,0.00,weatherlink.com 1.10,2013-01-03 10:24:00,
2013-01-03 05:39:00,29.8,29.0,30.17,SSW,194,2.0,-999.0,98,-99.99,,,0.00,weatherlink.com 1.10,2013-01-03 10:39:00,
2013-01-03 05:54:00,30.1,30.0,30.18,SSW,194,3.0,-999.0,98,-99.99,,,0.00,weatherlink.com 1.10,2013-01-03 10:54:00,
2013-01-03 06:09:00,31.0,31.0,30.18,SSW,194,7.0,-999.0,98,-99.99,,,0.00,weatherlink.com 1.10,2013-01-03 11:09:00,
2013-01-03 06:24:00,31.5,31.0,30.19,SSW,194,5.0,-999.0,98,-99.99,,,0.00,weatherlink.com 1.10,2013-01-03 11:24:00,
2013-01-03 06:39:00,31.3,31.0,30.19,SSW,194,0.0,-999.0,98,-99.99,,,0.00,weatherlink.com 1.10,2013-01-03 11:39:00,
2013-01-03 06:54:00,31.0,31.0,30.20,SSW,194,3.0,-999.0,98,-99.99,,,0.00,weatherlink.com 1.10,2013-01-03 11:54:00,
2013-01-03 07:09:00,30.4,30.0,30.21,SSW,194,2.0,-999.0,98,-99.99,,,0.00,weatherlink.com 1.10,2013-01-03 12:09:00,
2013-01-03 07:24:00,30.3,30.0,30.20,SSW,194,3.0,-999.0,98,-99.99,,,0.00,weatherlink.com 1.10,2013-01-03 12:24:00,
2013-01-03 07:39:00,30.2,30.0,30.20,SSW,194,4.0,-999.0,98,-99.99,,,0.00,weatherlink.com 1.10,2013-01-03 12:39:00,
2013-01-03 07:54:00,30.2,30.0,30.20,SSW,194,3.0,-999.0,98,-99.99,,,0.00,weatherlink.com 1.10,2013-01-03 12:54:00,
2013-01-03 08:09:00,30.3,30.0,30.21,SSW,194,1.0,-999.0,98,-99.99,,,0.00,weatherlink.com 1.10,2013-01-03 13:09:00,
2013-01-03 08:24:00,30.4,30.0,30.20,SSW,194,2.0,-999.0,98,-99.99,,,0.00,weatherlink.com 1.10,2013-01-03 13:24:00,
2013-01-03 08:39:00,30.3,30.0,30.21,SSW,194,2.0,-999.0,98,-99.99,,,0.00,weatherlink.com 1.10,2013-01-03 13:39:00,
2013-01-03 08:54:00,30.1,30.0,30.21,SSW,194,2.0,-999.0,98,-99.99,,,0.00,weatherlink.com 1.10,2013-01-03 13:54:00,
2013-01-03 09:09:00,29.7,29.0,30.22,SSW,194,5.0,-999.0,98,-99.99,,,0.00,weatherlink.com 1.10,2013-01-03 14:09:00,
2013-01-03 09:24:00,29.4,29.0,30.23,SSW,194,6.0,-999.0,98,-99.99,,,0.00,weatherlink.com 1.10,2013-01-03 14:24:00,
2013-01-03 09:39:00,29.3,29.0,30.23,SSW,194,5.0,-999.0,98,-99.99,,,0.00,weatherlink.com 1.10,2013-01-03 14:39:00,
2013-01-03 09:54:00,29.3,29.0,30.23,SSW,194,5.0,-999.0,98,-99.99,,,0.00,weatherlink.com 1.10,2013-01-03 14:54:00,
2013-01-03 10:09:00,29.6,29.0,30.24,SSW,194,4.0,-999.0,98,-99.99,,,0.00,weatherlink.com 1.10,2013-01-03 15:09:00,
2013-01-03 10:24:00,30.1,30.0,30.24,SSW,194,4.0,-999.0,98,-99.99,,,0.00,weatherlink.com 1.10,2013-01-03 15:24:00,
2013-01-03 10:39:00,30.2,30.0,30.23,SSW,194,3.0,-999.0,100,-99.99,,,0.00,weatherlink.com 1.10,2013-01-03 15:39:00,
2013-01-03 10:54:00,30.5,30.0,30.23,SSW,194,2.0,-999.0,98,-99.99,,,0.00,weatherlink.com 1.10,2013-01-03 15:54:00,
2013-01-03 11:09:00,30.5,30.0,30.23,SSW,194,2.0,-999.0,98,-99.99,,,0.00,weatherlink.com 1.10,2013-01-03 16:09:00,
2013-01-03 11:24:00,30.5,30.0,30.23,SSW,194,3.0,-999.0,99,-99.99,,,0.00,weatherlink.com 1.10,2013-01-03 16:24:00,
2013-01-03 11:39:00,30.8,31.0,30.22,SSW,194,4.0,-999.0,99,-99.99,,,0.00,weatherlink.com 1.10,2013-01-03 16:39:00,
2013-01-03 11:54:00,30.5,30.0,30.21,SSW,198,6.0,-999.0,98,-99.99,,,0.01,weatherlink.com 1.10,2013-01-03 16:54:00,
2013-01-03 12:09:00,30.1,30.0,30.21,SSW,209,0.0,-999.0,98,-99.99,,,0.01,weatherlink.com 1.10,2013-01-03 17:09:00,
2013-01-03 12:39:00,30.3,30.0,30.20,NW,321,0.0,-999.0,97,-99.99,,,0.01,weatherlink.com 1.10,2013-01-03 17:39:00,
2013-01-03 12:54:00,29.7,29.0,30.20,NW,321,0.0,-999.0,95,-99.99,,,0.01,weatherlink.com 1.10,2013-01-03 17:54:00,
2013-01-03 13:09:00,30.6,29.0,30.20,NW,321,0.0,-999.0,93,-99.99,,,0.01,weatherlink.com 1.10,2013-01-03 18:09:00,
2013-01-03 13:24:00,31.0,29.0,30.20,NW,321,0.0,-999.0,91,-99.99,,,0.01,weatherlink.com 1.10,2013-01-03 18:24:00,
2013-01-03 13:39:00,32.1,29.0,30.20,WNW,291,9.0,-999.0,89,-99.99,,,0.01,weatherlink.com 1.10,2013-01-03 18:39:00,
2013-01-03 13:54:00,31.4,27.0,30.20,NNW,346,7.0,-999.0,85,-99.99,,,0.01,weatherlink.com 1.10,2013-01-03 18:54:00,
2013-01-03 14:09:00,31.6,27.0,30.20,NNW,346,9.0,-999.0,83,-99.99,,,0.01,weatherlink.com 1.10,2013-01-03 19:09:00,
2013-01-03 14:55:00,29.8,26.0,30.22,NNW,344,11.0,-999.0,85,-99.99,,,0.01,weatherlink.com 1.10,2013-01-03 19:55:00,
2013-01-03 15:09:00,29.3,25.0,30.22,NNW,344,3.0,-999.0,85,-99.99,,,0.01,weatherlink.com 1.10,2013-01-03 20:09:00,
2013-01-03 15:24:00,29.2,25.0,30.22,NNW,344,4.0,-999.0,84,-99.99,,,0.01,weatherlink.com 1.10,2013-01-03 20:24:00,
2013-01-03 15:39:00,28.6,24.0,30.22,NNW,344,14.0,-999.0,84,-99.99,,,0.01,weatherlink.com 1.10,2013-01-03 20:39:00,
2013-01-03 15:54:00,28.8,24.0,30.23,NNW,344,11.0,-999.0,83,-99.99,,,0.01,weatherlink.com 1.10,2013-01-03 20:54:00,
2013-01-03 16:09:00,28.7,24.0,30.23,NNW,344,11.0,-999.0,83,-99.99,,,0.01,weatherlink.com 1.10,2013-01-03 21:09:00,
2013-01-03 16:24:00,28.8,23.0,30.24,NNW,344,10.0,-999.0,78,-99.99,,,0.01,weatherlink.com 1.10,2013-01-03 21:24:00,
2013-01-03 16:39:00,28.6,22.0,30.25,NNW,340,13.0,-999.0,76,-99.99,,,0.01,weatherlink.com 1.10,2013-01-03 21:39:00,
2013-01-03 16:54:00,28.5,22.0,30.25,NNW,344,15.0,-999.0,77,-99.99,,,0.01,weatherlink.com 1.10,2013-01-03 21:54:00,
2013-01-03 17:09:00,28.2,22.0,30.26,NNW,343,13.0,-999.0,79,-99.99,,,0.01,weatherlink.com 1.10,2013-01-03 22:09:00,
2013-01-03 17:24:00,27.4,22.0,30.26,NNW,342,10.0,-999.0,81,-99.99,,,0.01,weatherlink.com 1.10,2013-01-03 22:24:00,
2013-01-03 17:39:00,27.0,23.0,30.26,NNW,342,15.0,-999.0,83,-99.99,,,0.01,weatherlink.com 1.10,2013-01-03 22:39:00,
2013-01-03 17:54:00,26.9,23.0,30.27,NW,325,12.0,-999.0,85,-99.99,,,0.01,weatherlink.com 1.10,2013-01-03 22:54:00,
2013-01-03 18:09:00,26.7,23.0,30.27,NW,321,10.0,-999.0,86,-99.99,,,0.01,weatherlink.com 1.10,2013-01-03 23:09:00,
2013-01-03 18:24:00,26.6,23.0,30.27,NW,320,9.0,-999.0,87,-99.99,,,0.01,weatherlink.com 1.10,2013-01-03 23:24:00,
2013-01-03 18:39:00,26.6,24.0,30.28,NW,317,7.0,-999.0,88,-99.99,,,0.01,weatherlink.com 1.10,2013-01-03 23:39:00,
2013-01-03 18:55:00,26.5,23.0,30.28,NNW,331,10.0,-999.0,88,-99.99,,,0.01,weatherlink.com 1.10,2013-01-03 23:55:00,
2013-01-03 19:10:00,26.5,24.0,30.29,NW,325,15.0,-999.0,89,-99.99,,,0.01,weatherlink.com 1.10,2013-01-04 00:10:00,
2013-01-03 19:25:00,26.3,24.0,30.30,NNW,338,10.0,-999.0,90,-99.99,,,0.01,weatherlink.com 1.10,2013-01-04 00:25:00,
2013-01-03 19:40:00,26.4,24.0,30.30,NNW,331,15.0,-999.0,90,-99.99,,,0.01,weatherlink.com 1.10,2013-01-04 00:40:00,
2013-01-03 19:55:00,26.5,24.0,30.30,NW,315,21.0,-999.0,90,-99.99,,,0.01,weatherlink.com 1.10,2013-01-04 00:55:00,
2013-01-03 20:10:00,26.3,24.0,30.29,NW,317,3.0,-999.0,90,-99.99,,,0.01,weatherlink.com 1.10,2013-01-04 01:10:00,
2013-01-03 20:25:00,26.4,24.0,30.30,NNW,340,7.0,-999.0,90,-99.99,,,0.01,weatherlink.com 1.10,2013-01-04 01:25:00,
2013-01-03 20:40:00,26.3,24.0,30.29,NW,309,5.0,-999.0,89,-99.99,,,0.01,weatherlink.com 1.10,2013-01-04 01:40:00,
2013-01-03 20:55:00,26.1,23.0,30.29,NW,305,4.0,-999.0,89,-99.99,,,0.01,weatherlink.com 1.10,2013-01-04 01:55:00,
2013-01-03 21:10:00,26.0,23.0,30.29,WNW,302,18.0,-999.0,89,-99.99,,,0.01,weatherlink.com 1.10,2013-01-04 02:10:00,
2013-01-03 21:24:00,26.0,23.0,30.29,WNW,302,7.0,-999.0,88,-99.99,,,0.01,weatherlink.com 1.10,2013-01-04 02:24:00,
2013-01-03 21:39:00,26.2,23.0,30.30,WNW,301,10.0,-999.0,87,-99.99,,,0.01,weatherlink.com 1.10,2013-01-04 02:39:00,
2013-01-03 21:55:00,26.1,23.0,30.30,WNW,298,6.0,-999.0,86,-99.99,,,0.01,weatherlink.com 1.10,2013-01-04 02:55:00,
2013-01-03 22:10:00,26.0,22.0,30.31,WNW,295,9.0,-999.0,86,-99.99,,,0.01,weatherlink.com 1.10,2013-01-04 03:10:00,
2013-01-03 22:25:00,25.7,22.0,30.31,WNW,303,13.0,-999.0,86,-99.99,,,0.01,weatherlink.com 1.10,2013-01-04 03:25:00,
2013-01-03 22:39:00,25.5,22.0,30.32,NW,304,7.0,-999.0,87,-99.99,,,0.01,weatherlink.com 1.10,2013-01-04 03:39:00,
2013-01-03 22:55:00,25.3,22.0,30.32,WNW,296,8.0,-999.0,86,-99.99,,,0.01,weatherlink.com 1.10,2013-01-04 03:55:00,
2013-01-03 23:10:00,25.2,21.0,30.31,WNW,288,7.0,-999.0,85,-99.99,,,0.01,weatherlink.com 1.10,2013-01-04 04:10:00,
2013-01-03 23:25:00,25.0,21.0,30.31,WNW,288,11.0,-999.0,84,-99.99,,,0.01,weatherlink.com 1.10,2013-01-04 04:25:00,
2013-01-03 23:40:00,24.8,20.0,30.31,WNW,290,4.0,-999.0,83,-99.99,,,0.01,weatherlink.com 1.10,2013-01-04 04:40:00,
2013-01-03 23:55:00,24.6,20.0,30.31,WNW,290,7.0,-999.0,84,-99.99,,,0.01,weatherlink.com 1.10,2013-01-04 04:55:00,